{"data":{"norad_id":52625,"epoch":"2026-09-20T02:18:34.811136Z","epoch_age_seconds":101369,"freshness":"FRESH","line1":"1 52625U 22052AD  26263.09623624  .00000538  00000+0  26343-4 0  9999","line2":"2 52625  53.1587 104.0359 0001111  85.1024 275.0106 15.35397980240509","mean_motion":15.3539798,"eccentricity":0.0001111,"inclination_deg":53.1587,"raan_deg":104.0359,"arg_perigee_deg":85.1024,"mean_anomaly_deg":275.0106,"bstar":2.6343e-5,"rev_number":24050,"period_min":93.78675879201,"perigee_km":458.97895211401,"apogee_km":460.49832808124,"semimajor_km":6837.8756400976,"source":"CELESTRAK","updated_at":"2026-09-20T09:00:40.072709Z"}}